Location: Borojevi?i
(45.0486°N, 16.2297°E)
Time: 21:50:26
(UTC+00:00)

SAR-Lupe-2 - Pass Details

Date: 08 August 2020
Orbit: 482 x 484 km, 98.1° (Epoch: 24 August)

Event Time Altitude Azimuth Distance (km) Brightness Sun altitude
Rises 20:02:11 0° 21° (NNE) 2,557 7.6 -16.9°
Reaches altitude 10° 20:04:22 10° 30° (NNE) 1,672 6.5 -17.2°
Enters shadow 20:07:36 37° 94° (E) 774 4.2 -17.6°
